Hourly Data Report for September 07, 2017

All times are specified in Local Standard Time (LST). Add 1 hour to adjust for Daylight Saving Time where and when it is observed.

BATHURST A
NEW BRUNSWICK

47°37'47.000" N
65°44'20.000" W
58.80 m
8100505
71574
ZBF

Download Data

Hourly Data (September 2017)
Hourly Data Report for September 7, 2017
Temp Definition
°C
Dew Point Temp Definition
°C
Rel Hum Definition
%
Wind Dir Definition
10's deg

Wind Spd Definition
km/h
Visibility Definition
km
Stn Press Definition
kPa
Hmdx Definition


Wind Chill Definition


Weather Definition


TIME
00:00 Legend Double Dagger 15.4 15.1 98 2 5 2.0 100.76     Rain,Fog
01:00 Legend Double Dagger 14.1 13.6 97 34 7 1.6 100.75     Rain,Fog
02:00 Legend Double Dagger 14.3 13.9 97 35 5 1.2 100.72     Drizzle,Fog
03:00 Legend Double Dagger 14.3 14.0 98 2 8 1.2 100.60     Drizzle,Fog
04:00 Legend Double Dagger 14.3 14.1 98 7 8 1.6 100.52     Drizzle,Fog
05:00 Legend Double Dagger 14.5 14.3 99 8 4 1.2 100.41     Drizzle,Fog
06:00 Legend Double Dagger 14.5 14.4 99 36 1 0.8 100.28     Rain,Fog
07:00 Legend Double Dagger 14.6 14.5 99 20 3 2.4 100.26     Rain,Fog
08:00 Legend Double Dagger 14.9 14.8 99 26 3 3.2 100.09     Rain,Fog
09:00 Legend Double Dagger 15.5 15.3 99 36 1 3.2 99.98     Rain,Fog
10:00 Legend Double Dagger 16.5 16.2 98 36 3 2.4 99.91     Rain,Fog
11:00 Legend Double Dagger 19.0 18.7 99 17 5 8.1 99.78     Rain,Fog
12:00 Legend Double Dagger 21.5 20.1 92 18 14 8.1 99.66 29   Rain,Fog
13:00 Legend Double Dagger 21.9 20.0 89 19 18 8.1 99.60 29   Rain,Fog
14:00 Legend Double Dagger 22.1 20.2 89 19 19 16.1 99.52 30   Rain
15:00 Legend Double Dagger 22.0 20.5 91 18 14 4.8 99.42 30   Rain,Fog
16:00 Legend Double Dagger 22.6 20.1 86 18 18 19.3 99.43 30   LegendNANA
17:00 Legend Double Dagger 21.9 19.5 86 20 17 19.3 99.43 29   Cloudy
18:00 Legend Double Dagger 21.4 19.1 86 19 16 16.1 99.48 28   LegendNANA
19:00 Legend Double Dagger 19.4 15.5 78 24 27 24.1 99.61     LegendNANA
20:00 Legend Double Dagger 17.4 14.7 84 23 8 24.1 99.72     Mainly Clear
21:00 Legend Double Dagger 15.8 14.1 89 21 7 24.1 99.79     LegendNANA
22:00 Legend Double Dagger 14.7 13.7 94 23 10 24.1 99.86     LegendNANA
23:00 Legend Double Dagger 14.3 12.7 90 25 11 24.1 99.90     Mainly Clear

Notes on Data Quality.

Legend

  • E = Estimated
  • M = Missing
  • NA = Not Available
  • ‡ = Partner data that is not subject to review by the National Climate Archives
Date modified: